Hourly Data Report for September 07, 2017

All times are specified in Local Standard Time (LST). Add 1 hour to adjust for Daylight Saving Time where and when it is observed.

KUGAARUK CLIMATE
NUNAVUT

68°32'15.060" N
89°47'47.020" W
15.80 m
2303094
71407
NBB

Download Data

Hourly Data (September 2017)
Hourly Data Report for September 7, 2017
Temp Definition
°C
Dew Point Temp Definition
°C
Rel Hum Definition
%
Wind Dir Definition
10's deg

Wind Spd Definition
km/h
Visibility Definition
km
Stn Press Definition
kPa
Hmdx Definition


Wind Chill Definition


Weather Definition


TIME
00:00 1.6 -2.9 72 16 19   101.28     LegendNANA
01:00 0.2 -2.6 81 4 13   101.25     LegendNANA
02:00 1.2 -1.6 82 35 5   101.18     LegendNANA
03:00 0.3 -1.9 85 34 3   101.10     LegendNANA
04:00 1.2 -1.2 84 6 12   101.01     LegendNANA
05:00 2.0 -0.8 82 15 14   100.93     LegendNANA
06:00 2.9 0.4 84 15 19   100.83     LegendNANA
07:00 3.1 0.9 86 15 25   100.73     LegendNANA
08:00 3.5 1.2 85 14 24   100.65     LegendNANA
09:00 3.9 1.6 85 13 22   100.57     LegendNANA
10:00 4.9 2.5 85 14 18   100.50     LegendNANA
11:00 5.1 2.8 85 14 16   100.44     LegendNANA
12:00 5.8 3.3 84 13 10   100.37     LegendNANA
13:00 6.1 3.7 85 27 12   100.36     LegendNANA
14:00 5.8 3.1 83 30 12   100.34     LegendNANA
15:00 5.5 2.1 79 32 14   100.35     LegendNANA
16:00 5.6 1.8 77 33 13   100.35     LegendNANA
17:00 4.7 1.9 82 32 16   100.36     LegendNANA
18:00 4.5 1.6 81 28 10   100.35     LegendNANA
19:00 4.0 2.0 86 26 6   100.31     LegendNANA
20:00 4.1 1.9 86 24 9   100.29     LegendNANA
21:00 4.1 1.7 84 26 5   100.25     LegendNANA
22:00 4.0 1.6 84 24 8   100.23     LegendNANA
23:00 4.3 1.1 79 33 6   100.18     LegendNANA

Notes on Data Quality.

Legend

  • E = Estimated
  • M = Missing
  • NA = Not Available
  • ‡ = Partner data that is not subject to review by the National Climate Archives
Date modified: